When you browse on this site, cookies collect data to enhance your experience and personalize the content and advertising you see.
Visit our Privacy Policy to learn more. By continuing to use the site, you agree to this use of cookies and data.
  • în România
  • Lista ţărilor
  • Pe 7 zile
  • Temperatura apei
  • Meteo pe hartă
  • Widget-uri
  • user-avatar
    Intrare

    Meteo pe oră la Bucureşti

    Astăzi, 21 August, Miercuri

    Timp Temperatura Precipitaţii Vânt Presiune Umiditate
    00:00 +24°C° 0 mm 2 m/s 758 mmHg 40%
    01:00 +23°C° 0 mm 1 m/s 758 mmHg 43%
    02:00 +23°C° 0 mm 2 m/s 758 mmHg 45%
    03:00 +21°C° 0 mm 2 m/s 758 mmHg 46%
    04:00 +21°C° 0 mm 2 m/s 758 mmHg 48%
    05:00 +21°C° 0 mm 2 m/s 758 mmHg 49%
    06:00 +24°C° 0 mm 2 m/s 758 mmHg 44%
    07:00 +25°C° 0 mm 2 m/s 758 mmHg 39%
    08:00 +27°C° 0 mm 2 m/s 758 mmHg 35%
    09:00 +29°C° 0 mm 2 m/s 758 mmHg 31%
    10:00 +31°C° 0 mm 2 m/s 758 mmHg 28%
    11:00 +34°C° 0 mm 2 m/s 758 mmHg 25%
    12:00 +35°C° 0 mm 2 m/s 757 mmHg 23%
    13:00 +36°C° 0 mm 2 m/s 757 mmHg 20%
    14:00 +37°C° 0 mm 3 m/s 756 mmHg 18%
    15:00 +37°C° 0 mm 3 m/s 756 mmHg 18%
    16:00 +37°C° 0 mm 3 m/s 756 mmHg 18%
    17:00 +37°C° 0 mm 3 m/s 756 mmHg 18%
    18:00 +35°C° 0 mm 3 m/s 756 mmHg 20%
    19:00 +33°C° 0 mm 3 m/s 756 mmHg 23%
    20:00 +30°C° 0 mm 3 m/s 756 mmHg 26%
    21:00 +29°C° 0 mm 3 m/s 756 mmHg 29%
    22:00 +28°C° 0 mm 3 m/s 757 mmHg 32%
    23:00 +27°C° 0 mm 3 m/s 757 mmHg 35%

    Mâine, 22 August, Joi

    Timp Temperatura Precipitaţii Vânt Presiune Umiditate
    00:00 +26°C° 0 mm 2 m/s 757 mmHg 39%
    01:00 +26°C° 0 mm 2 m/s 757 mmHg 42%
    02:00 +25°C° 0 mm 2 m/s 757 mmHg 46%
    03:00 +25°C° 0 mm 2 m/s 757 mmHg 46%
    04:00 +25°C° 0 mm 2 m/s 757 mmHg 47%
    05:00 +24°C° 0 mm 2 m/s 757 mmHg 47%
    06:00 +26°C° 0 mm 3 m/s 757 mmHg 44%
    07:00 +27°C° 0 mm 4 m/s 758 mmHg 40%
    08:00 +29°C° 0 mm 4 m/s 758 mmHg 37%
    09:00 +32°C° 0 mm 5 m/s 758 mmHg 34%
    10:00 +34°C° 0 mm 5 m/s 758 mmHg 31%
    11:00 +36°C° 0 mm 5 m/s 758 mmHg 29%
    12:00 +36°C° 0 mm 5 m/s 758 mmHg 27%
    13:00 +37°C° 0 mm 5 m/s 758 mmHg 25%
    14:00 +39°C° 0 mm 6 m/s 757 mmHg 23%
    15:00 +38°C° 0 mm 6 m/s 757 mmHg 23%
    16:00 +38°C° 0 mm 6 m/s 757 mmHg 24%
    17:00 +36°C° 0 mm 6 m/s 757 mmHg 24%
    18:00 +34°C° 0 mm 6 m/s 757 mmHg 28%
    19:00 +32°C° 0 mm 5 m/s 758 mmHg 32%
    20:00 +29°C° 0 mm 5 m/s 758 mmHg 36%
    21:00 +28°C° 0 mm 4 m/s 758 mmHg 41%
    22:00 +27°C° 0 mm 4 m/s 759 mmHg 46%
    23:00 +26°C° 0 mm 4 m/s 759 mmHg 51%

    Poimâine, 23 August, Vineri

    Timp Temperatura Precipitaţii Vânt Presiune Umiditate
    00:00 +25°C° 0 mm 4 m/s 759 mmHg 55%
    01:00 +23°C° 0 mm 4 m/s 759 mmHg 58%
    02:00 +24°C° 0 mm 3 m/s 759 mmHg 61%
    03:00 +22°C° 0 mm 3 m/s 759 mmHg 64%
    04:00 +22°C° 0 mm 3 m/s 759 mmHg 66%
    05:00 +21°C° 0 mm 3 m/s 759 mmHg 69%
    06:00 +22°C° 0 mm 3 m/s 759 mmHg 64%
    07:00 +25°C° 0 mm 3 m/s 759 mmHg 59%
    08:00 +26°C° 0 mm 3 m/s 760 mmHg 54%
    09:00 +28°C° 0 mm 4 m/s 759 mmHg 47%
    10:00 +30°C° 0 mm 4 m/s 759 mmHg 40%
    11:00 +34°C° 0 mm 4 m/s 759 mmHg 34%
    12:00 +35°C° 0 mm 4 m/s 759 mmHg 31%
    13:00 +36°C° 0 mm 5 m/s 758 mmHg 28%
    14:00 +37°C° 0 mm 5 m/s 758 mmHg 25%
    15:00 +37°C° 0 mm 5 m/s 757 mmHg 25%
    16:00 +36°C° 0 mm 6 m/s 757 mmHg 25%
    17:00 +36°C° 0 mm 6 m/s 757 mmHg 25%
    18:00 +34°C° 0 mm 5 m/s 757 mmHg 29%
    19:00 +33°C° 0 mm 4 m/s 757 mmHg 33%
    20:00 +30°C° 0 mm 4 m/s 758 mmHg 37%
    21:00 +29°C° 0 mm 4 m/s 758 mmHg 40%
    22:00 +29°C° 0 mm 4 m/s 758 mmHg 43%
    23:00 +28°C° 0 mm 4 m/s 758 mmHg 45%

    24 August, Sâmbătă

    Timp Temperatura Precipitaţii Vânt Presiune Umiditate
    00:00 +27°C° 0 mm 5 m/s 758 mmHg 48%
    01:00 +27°C° 0 mm 5 m/s 758 mmHg 52%
    02:00 +26°C° 0 mm 5 m/s 758 mmHg 55%
    03:00 +25°C° 0 mm 5 m/s 758 mmHg 58%
    04:00 +25°C° 0 mm 4 m/s 758 mmHg 61%
    05:00 +23°C° 0 mm 4 m/s 758 mmHg 64%
    06:00 +26°C° 0 mm 5 m/s 758 mmHg 60%
    07:00 +27°C° 0 mm 5 m/s 758 mmHg 57%
    08:00 +28°C° 0 mm 6 m/s 758 mmHg 54%
    09:00 +30°C° 0 mm 6 m/s 758 mmHg 48%
    10:00 +33°C° 0 mm 6 m/s 758 mmHg 41%
    11:00 +35°C° 0 mm 6 m/s 758 mmHg 35%
    12:00 +35°C° 0 mm 6 m/s 758 mmHg 32%
    13:00 +36°C° 0 mm 5 m/s 757 mmHg 29%
    14:00 +37°C° 0 mm 5 m/s 757 mmHg 25%
    15:00 +37°C° 0 mm 5 m/s 756 mmHg 24%
    16:00 +37°C° 0 mm 5 m/s 756 mmHg 24%
    17:00 +37°C° 0 mm 4 m/s 756 mmHg 23%
    18:00 +35°C° 0 mm 4 m/s 756 mmHg 27%
    19:00 +33°C° 0 mm 4 m/s 756 mmHg 30%
    20:00 +30°C° 0 mm 3 m/s 756 mmHg 34%
    21:00 +29°C° 0 mm 3 m/s 756 mmHg 39%
    22:00 +28°C° 0 mm 2 m/s 757 mmHg 44%
    23:00 +27°C° 0 mm 2 m/s 757 mmHg 49%

    25 August, Duminică

    Timp Temperatura Precipitaţii Vânt Presiune Umiditate
    00:00 +26°C° 0 mm 2 m/s 757 mmHg 51%
    01:00 +25°C° 0 mm 2 m/s 757 mmHg 54%
    02:00 +25°C° 0 mm 2 m/s 756 mmHg 56%
    03:00 +24°C° 0 mm 2 m/s 756 mmHg 57%
    04:00 +24°C° 0 mm 2 m/s 756 mmHg 57%
    05:00 +24°C° 0 mm 2 m/s 756 mmHg 58%
    06:00 +25°C° 0 mm 3 m/s 757 mmHg 53%
    07:00 +27°C° 0 mm 3 m/s 757 mmHg 48%
    08:00 +29°C° 0 mm 4 m/s 757 mmHg 43%
    09:00 +32°C° 0 mm 4 m/s 757 mmHg 38%
    10:00 +34°C° 0 mm 5 m/s 757 mmHg 33%
    11:00 +36°C° 0 mm 5 m/s 757 mmHg 27%
    12:00 +37°C° 0 mm 5 m/s 756 mmHg 25%
    13:00 +38°C° 0 mm 4 m/s 756 mmHg 22%
    14:00 +40°C° 0 mm 4 m/s 755 mmHg 19%
    15:00 +40°C° 0 mm 4 m/s 755 mmHg 20%
    16:00 +38°C° 0 mm 4 m/s 755 mmHg 20%
    17:00 +39°C° 0 mm 5 m/s 755 mmHg 20%
    18:00 +36°C° 0 mm 5 m/s 755 mmHg 27%
    19:00 +34°C° 0 mm 5 m/s 755 mmHg 33%
    20:00 +30°C° 0 mm 5 m/s 755 mmHg 40%
    21:00 +29°C° 0 mm 5 m/s 756 mmHg 46%
    22:00 +27°C° 0 mm 4 m/s 756 mmHg 53%
    23:00 +26°C° 0 mm 3 m/s 756 mmHg 59%

    26 August, Luni

    Timp Temperatura Precipitaţii Vânt Presiune Umiditate
    00:00 +25°C° 0 mm 2 m/s 756 mmHg 60%
    01:00 +25°C° 0 mm 2 m/s 756 mmHg 62%
    02:00 +24°C° 0 mm 2 m/s 756 mmHg 63%
    03:00 +24°C° 0 mm 2 m/s 756 mmHg 64%
    04:00 +24°C° 0 mm 2 m/s 757 mmHg 64%
    05:00 +24°C° 0 mm 2 m/s 757 mmHg 64%
    06:00 +25°C° 0 mm 3 m/s 757 mmHg 57%
    07:00 +27°C° 0 mm 3 m/s 757 mmHg 50%
    08:00 +28°C° 0 mm 4 m/s 757 mmHg 44%
    09:00 +30°C° 0 mm 4 m/s 757 mmHg 38%
    10:00 +33°C° 0 mm 4 m/s 757 mmHg 32%
    11:00 +35°C° 0 mm 4 m/s 757 mmHg 26%
    12:00 +36°C° 0 mm 4 m/s 756 mmHg 24%
    13:00 +37°C° 0 mm 4 m/s 756 mmHg 21%
    14:00 +38°C° 0 mm 4 m/s 756 mmHg 19%
    15:00 +37°C° 0 mm 4 m/s 755 mmHg 19%
    16:00 +37°C° 0 mm 4 m/s 755 mmHg 20%
    17:00 +37°C° 0 mm 4 m/s 755 mmHg 21%
    18:00 +35°C° 0 mm 4 m/s 755 mmHg 26%
    19:00 +33°C° 0 mm 3 m/s 755 mmHg 31%
    20:00 +30°C° 0 mm 3 m/s 755 mmHg 36%
    21:00 +29°C° 0 mm 3 m/s 756 mmHg 41%
    22:00 +28°C° 0 mm 2 m/s 756 mmHg 46%
    23:00 +27°C° 0 mm 2 m/s 756 mmHg 51%
    Arată mai mult